Temperature
24 22 20 21 20 21 21 21 22 23 25 24 23 22 20 20 20 20 19 19 18 18 18 18 18 18 18 17 17 17 16 17 16 16 16 15 15 15 15 14 14 14 14 14
21 20 21 21 21 21 21 21 21 23 25 24 21 20 19 19 19 19 17 17 17 17 16 16 16 16 16 16 16 15 15 15 16 15 15 15 14 14 14 14 13 13 13 13
20 22 22 22 22 22 22 21 22 23 25 23 22 20 18 18 19 18 16 16 16 15 15 15 15 15 14 13 13 14 15 15 15 15 15 15 14 13 13 12 12 12 11 11
21 22 23 22 22 23 21 23 23 24 23 21 23 19 19 18 17 16 15 15 15 15 15 15 14 14 13 13 13 14 14 14 14 15 14 13 13 13 12 12 11 11 11 10
21 22 22 22 23 24 23 24 24 24 23 22 22 20 18 17 16 15 14 14 14 15 14 14 14 14 13 13 14 13 13 13 13 13 13 13 13 12 11 10 10 9 9 9
22 23 23 23 24 24 24 24 22 20 19 20 21 21 18 17 17 15 14 13 14 14 14 14 13 13 13 14 13 12 13 12 13 12 12 12 11 10 10 9 9 8 8 7
22 22 23 24 23 24 23 22 20 20 19 20 20 20 19 19 17 16 14 13 13 13 13 13 12 12 12 13 13 13 13 13 12 11 11 11 10 10 9 8 8 7 7 6
20 19 22 23 23 23 22 21 19 18 18 19 21 19 18 18 18 16 14 14 13 13 13 12 12 12 12 12 11 12 12 11 11 11 10 10 9 9 8 7 6 6 5 5
20 21 24 24 24 24 21 21 21 20 19 18 19 18 17 16 16 15 14 14 13 13 12 12 12 11 11 11 11 11 11 11 10 9 8 8 8 7 6 6 5 5 5 4
21 20 23 23 24 24 22 23 18 19 18 17 18 17 16 15 15 15 14 13 12 13 12 12 12 11 11 11 10 10 10 9 8 8 7 7 6 6 5 4 4 4 4 4
20 20 21 23 22 22 22 21 22 20 19 18 17 17 17 17 16 15 14 12 12 13 12 12 11 10 10 10 10 9 9 8 7 7 6 5 5 5 4 4 4 4 4 3
20 17 19 19 22 23 23 21 20 18 19 18 17 18 18 18 16 14 13 12 13 13 12 11 10 10 10 10 9 9 8 7 7 6 5 5 4 4 4 4 3 3 3 3
18 17 17 18 20 21 21 21 19 17 18 18 17 17 17 17 15 14 12 12 12 12 11 10 10 10 10 10 9 9 8 6 6 5 5 5 4 4 4 4 3 3 3 3
15 16 17 17 18 19 19 19 19 19 17 19 18 17 16 14 12 12 12 11 11 11 11 10 10 10 9 9 9 8 7 6 5 5 4 4 4 4 4 4 4 3 3 3
13 14 16 17 18 19 19 18 19 18 18 17 17 15 13 12 11 11 11 11 10 10 9 10 10 9 9 8 7 6 6 5 5 4 4 4 4 4 4 4 4 4 4 3
12 13 14 15 17 17 18 18 18 18 18 18 16 13 12 11 10 10 10 10 9 9 9 9 9 9 9 8 7 6 5 5 5 4 4 4 4 4 4 4 4 4 4 4
12 12 13 12 15 16 15 16 16 17 17 16 16 12 11 10 10 10 10 9 9 8 8 8 8 8 8 7 6 5 5 5 4 4 5 5 5 5 5 5 5 4 4 4
11 12 12 12 14 13 15 15 15 15 14 14 13 12 11 11 9 9 10 9 8 7 8 8 8 7 6 6 5 5 5 5 5 5 5 5 5 5 5 5 5 5 5 4
10 11 11 10 11 13 15 15 15 14 12 13 12 11 9 8 8 7 8 9 8 8 8 8 7 6 6 5 5 5 5 5 5 5 5 5 6 6 6 6 6 5 5 4
9 9 10 10 11 11 12 12 13 14 11 12 10 9 9 9 7 6 7 8 8 8 7 7 6 5 5 5 5 5 5 5 5 5 6 6 6 6 6 6 6 6 5 4
8 8 8 8 10 10 11 11 13 13 11 10 10 9 9 8 7 7 8 8 7 7 7 6 6 5 5 5 5 5 5 5 5 6 6 6 6 6 6 6 5 5 4 3
7 6 7 8 9 9 10 11 11 10 9 9 8 8 7 7 7 8 8 7 7 7 7 6 6 6 6 6 6 6 6 5 6 6 6 6 6 6 5 5 4 4 3 2
5 6 6 7 8 8 9 9 10 11 9 9 9 8 8 8 7 7 7 7 7 7 6 6 6 6 6 6 6 6 6 6 6 6 6 6 5 5 4 4 3 2 2 1
6 6 6 6 7 7 8 9 9 10 10 10 9 8 9 8 8 8 8 7 6 6 6 6 6 6 6 6 6 6 6 6 6 6 5 5 5 4 3 3 2 1 -0 -1
4 4 5 7 7 7 8 9 10 10 10 10 10 10 9 9 8 8 7 6 6 6 6 6 6 6 6 7 6 6 6 6 6 5 5 5 4 3 2 1 0 -1 -2 -2
5 5 4 6 9 7 7 10 10 10 10 10 10 9 9 9 8 7 7 6 6 6 6 6 6 7 7 7 6 6 6 6 6 5 5 4 3 2 1 -0 -1 -2 -2 -3
Wind_Speed
3 2 7 10 9 9 8 9 12 15 13 4 5 9 10 12 17 15 13 12 11 9 8 7 7 5 3 3 3 1 5 9 7 5 5 5 4 4 6 8 12 14 14 12
1 7 13 11 10 9 10 12 15 15 9 2 8 11 9 9 12 13 15 14 15 14 9 6 5 3 3 4 7 9 9 10 8 5 4 5 5 5 5 5 11 15 15 15
9 13 10 10 12 9 13 11 14 13 6 5 8 8 7 6 9 12 14 15 13 13 14 11 11 9 9 8 9 11 13 12 11 9 8 8 8 6 5 5 5 7 11 12
10 14 12 13 12 13 12 15 13 11 4 4 7 5 5 5 8 10 12 12 12 11 11 11 12 11 11 10 10 12 12 11 10 10 11 10 5 4 3 2 2 4 8 10
12 9 10 12 15 14 13 17 11 7 4 2 1 5 6 9 8 9 11 12 10 10 10 11 11 10 10 12 11 12 12 10 8 8 7 7 5 3 2 3 6 7 8 11
15 11 11 14 16 12 14 7 0 3 3 4 6 7 8 12 16 17 15 15 12 10 10 12 11 10 10 10 11 10 11 9 8 8 7 7 7 6 6 6 5 5 5 5
13 12 9 9 11 12 5 6 5 4 5 7 7 5 8 15 17 20 20 17 14 12 11 12 9 9 9 10 9 9 12 10 9 9 10 10 9 9 7 6 5 5 5 5
11 14 11 11 9 10 7 10 10 9 9 7 3 4 8 11 17 17 17 16 16 12 10 10 9 8 10 11 9 8 10 8 9 10 10 9 9 7 6 6 5 5 4 4
14 18 17 11 9 6 5 7 10 9 5 4 3 4 6 10 19 22 21 19 17 14 13 13 10 9 11 11 8 9 10 10 9 8 8 8 8 7 6 5 4 3 3 4
9 14 19 12 7 9 9 8 5 4 8 7 4 5 11 15 18 20 20 19 19 17 14 12 10 10 12 11 8 9 10 8 7 7 7 6 6 6 5 5 5 5 4 4
2 6 12 8 9 13 5 5 5 5 5 7 6 8 14 24 23 21 18 19 20 17 13 10 11 12 12 10 8 8 8 7 8 7 5 5 5 4 3 3 5 6 6 5
5 2 3 6 6 7 7 7 10 8 6 6 7 8 10 21 19 19 18 17 15 13 11 12 11 10 10 9 8 8 7 8 7 6 4 4 3 3 4 5 6 5 6 6
7 4 6 10 7 7 4 3 1 6 6 6 4 6 3 13 14 15 17 14 13 14 14 10 7 7 9 8 8 8 7 6 5 5 4 3 4 4 5 5 4 3 4 5
9 3 3 4 4 3 6 8 4 3 0 3 2 2 3 11 15 15 16 16 16 16 16 14 8 5 7 8 8 7 6 6 4 3 3 3 5 4 5 4 4 5 5 6
8 5 5 5 5 2 2 3 4 3 3 5 5 6 5 9 12 11 12 14 13 12 12 15 11 6 8 8 6 6 5 4 4 4 5 5 6 5 5 5 6 6 4 5
7 5 8 7 6 7 6 3 5 2 2 5 7 6 8 13 15 14 12 13 11 10 6 11 11 8 8 7 5 5 4 4 4 5 5 5 5 5 5 7 7 6 5 6
2 4 7 5 7 7 7 6 3 5 6 8 8 12 20 17 18 18 18 17 14 11 7 8 9 9 8 5 4 1 3 5 4 3 4 4 5 6 8 9 8 7 6 5
3 1 2 4 3 5 4 3 3 7 2 4 13 21 23 22 15 13 18 21 17 14 9 7 7 8 6 4 3 1 4 6 5 4 6 7 7 8 10 9 9 9 7 8
1 4 3 4 5 7 5 4 1 5 4 2 13 16 18 21 18 9 10 15 18 15 10 8 8 7 6 4 1 2 6 6 6 6 8 9 9 10 11 11 10 8 7 5
7 3 2 2 3 6 5 4 5 3 2 4 15 19 22 20 12 9 12 15 14 13 10 10 8 6 5 2 3 4 5 6 6 7 8 9 8 8 9 10 7 5 3 4
7 4 0 3 5 7 4 4 3 5 7 12 14 9 5 4 11 16 15 14 12 11 11 10 8 6 4 5 3 4 3 3 6 7 8 9 9 7 6 7 6 8 8 7
1 3 3 2 5 7 3 2 4 5 7 13 16 18 11 17 17 16 16 13 10 10 10 8 6 5 6 5 3 2 3 5 6 7 8 9 8 10 10 11 10 9 8 7
2 3 3 5 6 5 6 4 3 10 16 16 18 24 24 18 16 16 14 11 10 9 8 6 6 6 5 3 3 1 4 5 6 8 8 7 10 10 9 9 8 6 6 5
4 4 4 5 4 7 9 2 8 10 13 15 18 18 21 20 16 14 13 10 7 7 6 5 5 4 1 1 3 2 2 5 7 8 7 8 10 8 7 5 5 5 5 6
5 3 5 7 5 7 5 5 8 14 17 13 16 18 19 19 16 14 10 8 7 5 4 4 5 4 2 1 2 2 3 6 8 7 8 9 7 6 5 4 3 3 2 3
6 6 5 7 7 8 4 4 12 16 17 17 19 18 14 15 13 12 9 7 5 5 4 4 2 3 3 2 3 4 4 7 7 8 8 7 5 4 4 4 4 6 7 9
Wind_Direction
210 175 227 232 222 226 239 261 273 278 284 281 232 132 109 117 110 115 117 118 119 122 133 136 134 143 112 26 340 46 94 99 102 86 89 90 62 41 48 39 33 30 25 19
279 235 233 226 233 238 248 263 273 280 280 107 93 78 73 110 123 123 121 121 124 125 133 144 146 125 107 81 66 68 71 62 54 63 68 78 79 58 48 41 36 31 29 24
206 242 236 235 248 238 246 235 251 259 283 90 100 60 55 60 95 106 114 122 120 124 131 130 134 131 120 104 88 82 73 64 56 53 61 60 53 41 32 21 22 23 37 39
223 248 244 244 245 239 253 247 235 245 236 196 171 159 177 170 121 117 119 119 119 113 110 112 117 119 118 112 101 92 83 74 67 65 73 75 74 63 25 360 9 5 16 14
232 235 242 247 245 237 235 250 233 228 237 249 141 161 198 171 156 148 132 125 123 118 117 113 113 112 110 109 102 96 92 85 81 83 88 89 81 66 20 8 10 3 7 29
233 232 223 239 251 238 235 228 282 58 75 279 237 214 209 190 174 158 146 137 130 117 111 108 105 96 86 88 93 96 92 82 76 75 72 72 69 50 44 30 27 18 16 19
249 252 245 229 251 265 201 211 251 273 267 252 247 219 245 197 159 154 147 142 139 135 126 119 114 108 103 90 83 83 83 73 68 65 60 63 65 63 56 40 37 29 14 2
219 249 246 247 214 237 216 181 192 213 235 263 290 292 310 146 133 131 134 139 141 138 131 126 130 130 110 94 86 82 81 72 61 67 72 68 60 52 41 35 35 31 10 343
219 240 252 232 232 184 235 187 196 176 186 205 170 104 43 100 131 142 149 147 143 143 136 136 138 129 106 95 88 85 75 65 65 75 73 64 55 51 43 34 37 29 2 335
234 237 244 242 234 253 206 191 154 186 195 228 233 204 177 168 162 155 153 148 146 146 146 149 138 115 103 100 93 75 72 73 69 74 76 72 60 52 41 27 6 348 333 331
345 214 260 242 207 228 198 154 162 176 177 199 223 249 191 185 170 158 150 144 146 148 153 136 122 117 108 105 93 81 76 69 63 73 64 55 48 42 24 346 338 334 330 326
338 105 273 256 233 214 202 189 163 173 213 196 187 248 199 180 164 152 142 139 140 137 128 119 121 115 109 102 89 78 80 79 81 84 61 30 13 355 340 333 337 348 342 325
336 35 14 338 332 357 357 357 223 142 161 186 177 272 156 146 136 133 131 130 127 116 106 97 93 102 102 97 86 78 78 76 84 73 50 359 344 350 340 341 333 326 320 320
17 48 119 216 260 326 332 337 347 79 137 251 145 250 122 132 133 134 132 130 128 128 129 126 121 117 99 88 80 81 59 61 63 42 17 327 317 329 320 327 298 292 312 329
32 20 355 287 281 276 208 261 309 50 124 120 162 152 126 119 118 113 116 118 121 132 140 127 129 126 92 83 78 70 56 34 16 356 338 317 297 305 313 298 278 283 318 321
7 0 1 334 349 339 294 225 191 172 173 155 133 92 117 120 123 120 123 115 113 120 123 117 120 111 98 94 80 53 12 355 345 324 313 316 317 319 299 274 270 288 310 299
327 31 5 312 341 337 298 299 202 183 185 162 161 159 140 144 144 147 141 126 130 130 133 124 120 119 114 116 113 107 335 321 301 272 281 300 306 307 283 270 278 280 275 269
192 165 212 262 321 237 244 330 90 96 57 150 143 153 153 146 130 122 129 134 141 134 133 117 117 117 136 146 137 354 301 269 230 240 267 272 271 267 266 273 278 267 256 254
105 164 210 226 208 257 281 330 328 101 35 110 133 129 125 117 102 100 133 132 130 132 130 129 138 142 151 141 148 270 267 245 251 269 276 275 265 262 267 270 272 273 265 289
46 77 157 230 231 242 233 292 320 105 52 123 137 141 140 136 132 140 128 113 111 113 118 128 135 125 117 194 237 264 257 246 265 283 291 293 285 275 272 278 296 287 41 53
352 1 354 207 241 255 226 265 308 215 178 126 115 102 137 113 127 134 124 117 119 115 116 121 122 133 183 233 237 252 263 271 282 308 321 326 334 342 7 22 23 54 60 52
294 306 278 239 229 258 246 231 199 171 103 109 106 98 104 112 121 126 125 127 125 113 116 131 144 183 222 231 215 237 277 291 319 338 350 354 22 56 70 69 57 53 48 41
235 223 253 244 244 276 293 297 140 141 129 135 142 143 140 136 134 130 126 122 113 121 151 165 175 201 232 233 199 245 295 323 357 9 13 30 64 63 64 66 58 50 43 33
278 302 277 269 280 310 300 140 135 125 120 132 135 135 131 130 128 117 111 117 130 145 139 145 149 154 119 118 163 207 344 25 35 26 33 62 78 76 59 56 59 58 42 21
244 292 278 259 235 293 335 167 142 121 116 116 114 122 122 122 126 125 130 137 140 133 116 122 108 89 33 287 282 336 38 53 47 48 60 71 88 85 76 58 41 40 15 48
209 206 225 236 190 160 186 135 125 117 112 113 110 105 110 120 122 125 131 135 139 132 110 91 87 51 14 11 24 38 78 77 77 66 67 82 95 79 52 40 2 342 341 347
Height
1499 1506 1511 1508 1508 1508 1510 1512 1512 1499 1487 1491 1492 1495 1494 1495 1493 1498 1501 1504 1507 1512 1517 1519 1521 1521 1523 1525 1528 1530 1530 1531 1532 1535 1538 1541 1541 1540 1539 1540 1540 1540 1538 1537
1504 1508 1500 1499 1501 1504 1507 1512 1510 1496 1486 1490 1497 1503 1500 1499 1496 1497 1501 1505 1508 1513 1518 1521 1523 1523 1524 1525 1525 1526 1527 1530 1533 1535 1538 1539 1538 1539 1538 1539 1538 1537 1535 1533
1504 1498 1494 1497 1499 1504 1503 1506 1502 1499 1487 1491 1499 1512 1511 1507 1503 1504 1505 1507 1510 1513 1516 1520 1522 1522 1523 1524 1525 1526 1527 1531 1534 1535 1536 1536 1537 1537 1537 1536 1535 1534 1532 1530
1496 1490 1491 1494 1496 1495 1503 1489 1490 1489 1495 1505 1499 1526 1518 1512 1511 1510 1507 1507 1509 1513 1517 1519 1522 1523 1524 1526 1527 1528 1530 1532 1533 1534 1534 1535 1536 1535 1535 1534 1533 1531 1529 1527
1491 1485 1488 1491 1488 1485 1489 1480 1483 1483 1489 1498 1499 1515 1519 1513 1513 1511 1510 1510 1512 1513 1518 1520 1523 1523 1524 1526 1529 1530 1530 1532 1534 1534 1534 1534 1533 1533 1532 1531 1529 1527 1526 1524
1478 1476 1478 1479 1476 1476 1476 1479 1483 1489 1499 1510 1501 1505 1517 1504 1499 1504 1508 1509 1513 1516 1519 1522 1523 1524 1525 1526 1530 1531 1531 1532 1533 1533 1533 1531 1530 1529 1528 1527 1525 1523 1521 1518
1480 1475 1470 1470 1476 1472 1474 1487 1506 1509 1515 1512 1496 1502 1497 1489 1490 1495 1501 1507 1511 1517 1519 1521 1523 1524 1525 1527 1531 1532 1531 1532 1533 1532 1531 1530 1528 1527 1524 1522 1520 1518 1516 1513
1488 1491 1467 1463 1467 1472 1472 1482 1505 1521 1521 1512 1496 1504 1496 1483 1490 1498 1503 1507 1510 1516 1520 1521 1523 1525 1524 1528 1533 1534 1532 1532 1532 1531 1530 1528 1526 1524 1522 1520 1517 1515 1513 1511
1475 1471 1454 1455 1456 1461 1473 1475 1471 1490 1501 1512 1505 1501 1499 1494 1492 1493 1496 1501 1508 1515 1518 1521 1523 1525 1523 1528 1533 1533 1533 1531 1530 1529 1528 1526 1524 1521 1518 1515 1514 1512 1510 1509
1457 1467 1452 1449 1451 1452 1458 1458 1483 1488 1508 1517 1507 1505 1501 1499 1495 1493 1495 1498 1504 1512 1517 1519 1521 1522 1521 1527 1532 1532 1532 1531 1529 1527 1526 1524 1521 1518 1515 1514 1513 1511 1509 1507
1455 1465 1458 1452 1456 1458 1457 1460 1462 1475 1486 1503 1513 1503 1477 1475 1481 1487 1494 1497 1502 1509 1515 1517 1520 1521 1523 1526 1530 1531 1530 1529 1527 1526 1524 1523 1521 1518 1516 1514 1512 1511 1508 1506
1456 1464 1465 1457 1444 1440 1444 1451 1459 1480 1484 1486 1494 1489 1460 1464 1476 1483 1492 1499 1505 1511 1516 1519 1524 1525 1526 1528 1531 1529 1528 1526 1524 1524 1524 1522 1520 1517 1515 1512 1509 1507 1507 1504
1459 1468 1477 1470 1461 1452 1452 1454 1455 1462 1471 1479 1491 1489 1463 1470 1479 1486 1493 1502 1508 1513 1519 1527 1533 1532 1527 1529 1530 1528 1526 1524 1523 1522 1521 1520 1517 1514 1512 1510 1508 1506 1504 1502
1460 1469 1475 1483 1474 1467 1467 1461 1457 1460 1474 1470 1477 1480 1478 1481 1486 1489 1493 1499 1505 1510 1513 1521 1532 1535 1530 1529 1528 1526 1525 1523 1521 1520 1518 1517 1514 1512 1511 1509 1507 1505 1502 1499
1472 1478 1473 1470 1465 1462 1464 1463 1459 1462 1465 1475 1476 1483 1489 1492 1495 1498 1501 1504 1508 1513 1514 1511 1523 1531 1527 1528 1529 1527 1524 1522 1519 1518 1516 1514 1513 1511 1509 1507 1506 1503 1500 1497
1478 1482 1480 1476 1466 1464 1463 1462 1461 1461 1464 1465 1471 1484 1487 1489 1494 1500 1506 1509 1516 1522 1527 1515 1517 1523 1524 1527 1527 1526 1524 1520 1519 1518 1515 1514 1512 1510 1508 1506 1504 1501 1499 1496
1482 1485 1488 1487 1474 1469 1475 1463 1462 1459 1457 1462 1468 1475 1480 1488 1490 1495 1498 1505 1513 1515 1526 1524 1518 1521 1524 1527 1526 1525 1523 1522 1520 1518 1516 1514 1512 1510 1507 1505 1502 1499 1496 1493
1480 1484 1488 1488 1480 1491 1473 1460 1456 1460 1461 1458 1458 1464 1468 1476 1487 1494 1495 1497 1504 1513 1523 1525 1523 1522 1526 1524 1524 1524 1525 1525 1521 1518 1516 1513 1511 1509 1506 1503 1499 1497 1493 1490
1478 1482 1485 1491 1488 1477 1467 1461 1459 1463 1472 1466 1466 1472 1477 1480 1486 1497 1499 1498 1500 1507 1512 1521 1524 1522 1523 1521 1522 1525 1527 1525 1520 1516 1513 1511 1509 1506 1503 1500 1496 1494 1490 1488
1479 1481 1487 1488 1487 1484 1473 1464 1460 1460 1474 1470 1470 1473 1474 1477 1488 1500 1503 1506 1508 1509 1514 1519 1521 1520 1520 1522 1525 1526 1526 1523 1518 1514 1512 1510 1507 1504 1501 1497 1493 1490 1487 1484
1488 1487 1489 1490 1483 1474 1467 1462 1462 1472 1473 1469 1473 1483 1488 1486 1487 1495 1500 1506 1509 1510 1513 1517 1519 1520 1524 1526 1527 1527 1525 1520 1516 1513 1511 1509 1505 1502 1498 1495 1492 1488 1485 1482
1494 1496 1492 1488 1482 1481 1464 1462 1466 1466 1466 1469 1473 1481 1499 1496 1498 1497 1500 1506 1511 1511 1514 1519 1522 1524 1525 1526 1527 1526 1522 1518 1515 1513 1511 1507 1504 1501 1499 1496 1492 1489 1485 1481
1496 1493 1491 1487 1481 1473 1467 1461 1460 1459 1460 1467 1474 1478 1488 1497 1501 1499 1501 1506 1510 1514 1520 1522 1524 1524 1525 1525 1526 1523 1520 1518 1515 1513 1511 1507 1504 1502 1499 1495 1492 1487 1483 1478
1489 1488 1487 1481 1474 1472 1468 1462 1460 1461 1462 1468 1476 1485 1486 1494 1500 1501 1504 1509 1514 1519 1522 1523 1525 1525 1524 1523 1524 1521 1520 1518 1515 1513 1510 1507 1505 1502 1498 1495 1490 1486 1481 1476
1489 1488 1485 1475 1470 1470 1466 1466 1464 1464 1468 1479 1481 1487 1491 1495 1500 1503 1509 1513 1518 1520 1522 1524 1525 1524 1523 1523 1523 1522 1521 1519 1516 1513 1511 1508 1506 1502 1499 1494 1490 1485 1481 1477
1480 1480 1480 1470 1462 1465 1465 1466 1470 1472 1474 1480 1483 1489 1496 1498 1501 1506 1511 1516 1520 1521 1522 1523 1524 1524 1524 1524 1524 1523 1522 1520 1517 1514 1512 1509 1506 1503 1498 1493 1490 1486 1483 1479